User: anonymous   Login
Location: Unspecified
(0.0000°N, 0.0000°E)
Time: 17:49:52
(UTC+00:00)
Language:

Picosat 9 - Orbit

View from above orbital plane
View from above orbital plane
View from above satellite
View from above satellite

Ground track
Ground track

The orbit is defined by the following mean orbital elements,

1 26930U          26106.04896764 +.00000000 +00000-0 +35965-4 0 00004
2 26930  67.0025 345.8479 0010791 283.4878  76.5021 14.31574394    02
Epoch (UTC): 16 April 2026 01:10:30
Eccentricity: 0.0010791
inclination: 67.0025°
perigee height: 779 km
apogee height: 794 km
right ascension of ascending node: 345.8479°
argument of perigee: 283.4878°
revolutions per day: 14.31574394
mean anomaly at epoch: 76.5021°

The dashed part of the orbit path shows where the satellite is in the earth's shadow,  

DLR